Location: Siloam Springs
(36.1881°N, 94.5403°W)
Time: 05:01:49
(UTC-05:00)

CUBESAT XI-V - Pass Details

Date: 01 June 2024
Orbit: 657 x 679 km, 98.2° (Epoch: 16 June)

Event Time Altitude Azimuth Distance (km) Brightness Sun altitude
Exits shadow 03:42:03 63° 238° (WSW) 736 ? -22.2°
Maximum altitude 03:42:19 64° 258° (WSW) 727 ? -22.2°
Drops below altitude 10° 03:46:48 10° 341° (NNW) 2,075 ? -21.7°
Sets 03:49:03 0° 344° (NNW) 2,991 ? -21.4°
